Wind from 213 at 6 knots

Air temperature 25.0° C
Dewpoint 7.1° C

Last reported at 2014-Apr-23 12:44 UTC.
Time now 2014-Apr-23 13:13 UTC

Location: N 38°00' W 001°02'.
View on Google Maps.

See reports from other nearby stations

Tides Stations Pressure Air Temp Water Temp Dewpoint Dewpoint depression Visibility Wind Speed Wind Dir Waves Ship positions

  
sailing weather and tide predictions

DW2959 Murcia ES weather

date/time (UTC)wind fromknots sea level pressurealtimeterstation pressurevisibilityair tempwater tempwave heightnotes
2014-Apr-23 12:44 213 6 25.0
2014-Apr-23 12:29 217 3 25.0
2014-Apr-23 12:14 216 1 24.4
2014-Apr-23 11:59 292 1 24.4
2014-Apr-23 11:44 243 1 24.4
2014-Apr-23 11:29 290 5 23.9
2014-Apr-23 11:14 337 3 23.3
2014-Apr-23 10:59 284 1 23.9
2014-Apr-23 10:44 264 2 22.8
2014-Apr-23 10:29 288 0 22.8
2014-Apr-23 10:14 277 3 22.8
2014-Apr-23 09:59 184 1 22.2
2014-Apr-23 09:44 274 2 21.7
2014-Apr-23 09:29 217 2 21.7
2014-Apr-23 09:14 269 4 21.1
2014-Apr-23 08:59 279 4 21.1
2014-Apr-23 08:44 245 2 20.6
2014-Apr-23 08:28 261 3 20.0
2014-Apr-23 08:13 287 4 19.4
2014-Apr-23 07:58 229 3 19.4
2014-Apr-23 07:43 263 2 18.9
2014-Apr-23 07:28 240 2 18.3
2014-Apr-23 07:13 270 2 17.8
2014-Apr-23 06:58 236 2 17.2
2014-Apr-23 06:43 217 2 16.7
2014-Apr-23 06:28 237 3 16.7
2014-Apr-23 06:13 215 1 16.1
2014-Apr-23 05:58 261 1 16.1
2014-Apr-23 05:43
2014-Apr-23 05:28
2014-Apr-23 05:13
2014-Apr-23 04:58
2014-Apr-23 04:43
2014-Apr-23 04:28
2014-Apr-23 04:13
2014-Apr-23 03:58
2014-Apr-23 03:43
2014-Apr-23 03:27
2014-Apr-23 03:12
2014-Apr-23 02:57 252 2 16.1
2014-Apr-23 02:42 265 4 16.1
2014-Apr-23 02:27 265 4 15.6
2014-Apr-23 02:12 264 1 16.7
2014-Apr-23 01:57 261 1 16.7
2014-Apr-23 01:42 260 1 17.2
2014-Apr-23 01:27 259 0 17.2
2014-Apr-23 01:12 265 0 17.8
2014-Apr-23 00:57 266 0 17.8
2014-Apr-23 00:42 263 1 17.8
2014-Apr-23 00:27 255 0 17.8
2014-Apr-23 00:12 231 1 17.8
2014-Apr-22 23:57 227 3 18.3
2014-Apr-22 23:42 234 1 18.9
2014-Apr-22 23:27 277 2 18.9
2014-Apr-22 23:12 250 1 18.9
2014-Apr-22 22:57 269 0 18.9
2014-Apr-22 22:42 223 18.9
2014-Apr-22 22:27 223 19.4
2014-Apr-22 22:12 273 1 20.0
2014-Apr-22 21:57 318 0 19.4
2014-Apr-22 21:42 290 20.0
2014-Apr-22 21:27 290 0 20.0
2014-Apr-22 21:12 291 20.6
2014-Apr-22 20:57 246 20.6
2014-Apr-22 20:42 245 2 21.1
2014-Apr-22 20:27 248 1 21.1
2014-Apr-22 19:57 238 2 21.7
2014-Apr-22 19:41 223 2 21.7
2014-Apr-22 19:26 223 0 22.2
2014-Apr-22 19:11 194 22.2
2014-Apr-22 18:56 194 1 22.8
2014-Apr-22 18:41 189 4 23.3
2014-Apr-22 18:26 174 6 23.3
2014-Apr-22 18:11 190 7 23.9
2014-Apr-22 17:56 160 8 23.9
2014-Apr-22 17:41 181 4 25.0
2014-Apr-22 17:26 044 25.6
2014-Apr-22 17:11 350 3 25.6
2014-Apr-22 16:56 329 4 26.1
2014-Apr-22 16:41 323 4 26.7
2014-Apr-22 16:26 292 3 26.7
2014-Apr-22 16:11 360 5 26.7
2014-Apr-22 15:56 335 4 26.1
2014-Apr-22 15:41 332 4 26.1
2014-Apr-22 15:26 329 6 26.7
2014-Apr-22 15:11 346 6 26.1
2014-Apr-22 14:56 304 6 26.1
2014-Apr-22 14:41 005 7 26.1
2014-Apr-22 14:26 334 7 25.6
2014-Apr-22 14:11 297 8 25.6
2014-Apr-22 13:56 333 9 25.6
2014-Apr-22 13:41 314 6 26.1
2014-Apr-22 13:26 294 7 25.6
2014-Apr-22 13:11 307 7 25.6
2014-Apr-22 12:56 318 9 25.6
2014-Apr-22 12:41 355 9 25.0
2014-Apr-22 12:25 355 7 25.0
2014-Apr-22 12:10 005 7 24.4
2014-Apr-22 11:55 279 6 24.4
2014-Apr-22 11:40 332 7 24.4
2014-Apr-22 11:25 310 7 23.9
2014-Apr-22 10:55 282 6 23.3
2014-Apr-22 10:40 317 8 22.8
2014-Apr-22 10:25 306 9 22.8
2014-Apr-22 10:10 310 8 22.2
2014-Apr-22 09:55 345 6 22.2
2014-Apr-22 09:25 311 9 21.1
2014-Apr-22 09:10 283 11 20.6
2014-Apr-22 08:55 292 12 20.0
2014-Apr-22 08:40 281 9 20.0
2014-Apr-22 08:25 306 6 19.4
2014-Apr-22 08:10 294 8 18.9
2014-Apr-22 07:55 309 6 18.3
2014-Apr-22 07:40 322 6 18.3
2014-Apr-22 07:25 283 8 17.8
2014-Apr-22 07:09 271 8 17.2
2014-Apr-22 06:54 269 8 16.7
2014-Apr-22 06:39 265 7 16.7
2014-Apr-22 06:24 258 6 16.7
2014-Apr-22 06:09 254 3 16.1
2014-Apr-22 05:54
2014-Apr-22 05:39
2014-Apr-22 05:24
2014-Apr-22 05:09
2014-Apr-22 04:54
2014-Apr-22 04:39
2014-Apr-22 04:24
2014-Apr-22 04:09
2014-Apr-22 03:54
2014-Apr-22 03:39
2014-Apr-22 03:24
2014-Apr-22 03:08
2014-Apr-22 02:53 265 1 14.4
2014-Apr-22 02:38 265 15.0
2014-Apr-22 02:23 263 2 15.6
2014-Apr-22 01:53 265 2 16.1
2014-Apr-22 01:38 238 0 15.6
2014-Apr-22 01:23 221 0 15.0
2014-Apr-22 01:08 242 0 15.0
2014-Apr-22 00:53 272 2 15.6
2014-Apr-22 00:38 268 2 15.6
2014-Apr-22 00:23 267 1 16.1
2014-Apr-22 00:08 267 1 16.7
2014-Apr-21 23:53 299 2 17.2
2014-Apr-21 23:38 311 5 17.2
2014-Apr-21 23:23 279 2 17.2
2014-Apr-21 23:08 269 3 17.2
2014-Apr-21 22:53 265 3 17.8
2014-Apr-21 22:23 312 4 17.8
2014-Apr-21 22:08 280 3 17.8
2014-Apr-21 21:53 275 4 17.8
2014-Apr-21 21:38 284 2 17.8
2014-Apr-21 21:23 257 1 18.3
2014-Apr-21 21:08 254 0 18.3
2014-Apr-21 20:53 263 1 18.9
2014-Apr-21 20:38 265 0 18.3
2014-Apr-21 20:23 011 17.8
2014-Apr-21 20:08 036 17.8
2014-Apr-21 19:53 036 18.3
2014-Apr-21 19:38 036 18.3
2014-Apr-21 19:23 034 18.9
2014-Apr-21 19:07 034 18.9
2014-Apr-21 18:52 034 19.4
2014-Apr-21 18:37 034 19.4
2014-Apr-21 18:22 034 20.0
2014-Apr-21 18:07 034 20.0
2014-Apr-21 17:37 034 21.1
2014-Apr-21 16:52 034 22.2
2014-Apr-21 16:37 033 0 21.7
2014-Apr-21 16:22 032 20.6
2014-Apr-21 16:07 032 20.0
2014-Apr-21 15:52 032 0 19.4
2014-Apr-21 15:37 009 2 19.4
2014-Apr-21 15:22 317 7 20.0
2014-Apr-21 14:52 245 5 21.7
2014-Apr-21 14:37 257 3 21.7
2014-Apr-21 14:22 355 4 22.2
2014-Apr-21 14:07 295 7 23.3
2014-Apr-21 13:52 178 9 23.9
2014-Apr-21 13:37 192 6 23.9
2014-Apr-21 13:22 163 1 23.9
2014-Apr-21 13:07 344 23.9